Location: Wingville
(42.9917°N, 90.4915°W)
Time: 13:12:50
(UTC+00:00)

LO-87 - Pass Details

Date: 01 July 2022
Orbit: 451 x 466 km, 97.4° (Epoch: 08 August)

Event Time Altitude Azimuth Distance (km) Brightness Sun altitude
Exits shadow 06:15:40 23° 293° (WNW) 1,018 ? -23.9°
Drops below altitude 10° 06:17:40 10° 324° (NW) 1,617 ? -23.8°
Sets 06:19:57 0° 337° (NNW) 2,501 ? -23.8°
